Tracking 19908 objects as of 19-Oct-2019
HD Live streaming from Space Station
objects crossing your sky now

FACSAT 1

Track FACSAT 1 now!
10-day predictions


NORAD ID: 43721
Int'l Code: 2018-096C
Perigee: 482.1 km
Apogee: 504.4 km
Inclination: 97.4 °
Period: 94.3 minutes
Semi major axis: 6864 km
RCS: Unknown
Launch date: November 29, 2018
Source: (TBD)
Launch site: SRIHARIKOTA (SRI)
aabbcc
Your satellite tracking list
Your tracking list is empty




NASA's NSSDC Master Catalog

Two Line Element Set (TLE):
1 43721U 18096C   19292.45455917  .00001095  00000-0  44599-4 0  9994
2 43721  97.4486   2.0644 0016292 255.5656 104.3775 15.26563414 49464
Source of the keplerian elements: AFSPC